#timestamp,LO_Frequency,Hit,StdDev 
1456509615.4,286046995.5,P
1456509635.3,286046996.4,N
1456509655.1,286046994.1,Y
1456509656.0,286046994.1,P
1456509675.8,286046994.9,P
1456509695.7,286046997.5,N
1456509715.5,286046995.9,N
1456509735.3,286046997.9,N
1456509755.2,286046997.0,N
1456509775.9,286046993.5,Y
1456509795.7,286046998.0,P
1456509815.6,286046997.6,N
1456509835.4,286046995.7,P
1456509855.2,286046991.9,Y
1456509875.1,286046992.6,P
1456509876.0,286046992.6,P
1456509895.8,286046994.7,N
1456509915.6,286046995.1,N
1456509935.5,286046999.5,N
1456509955.3,286047001.1,N
1456509975.1,286046998.3,N
1456509995.8,286046995.3,N
1456510015.7,286046993.8,N
1456510035.5,286046994.2,N
1456510055.3,286046994.5,N
1456510075.2,286046990.9,Y
1456510095.0,286046996.1,P
1456510095.9,286046996.1,P
1456510115.7,286046999.4,P
1456510135.6,286046996.3,N
1456510155.4,286046995.2,Y
1456510175.2,286047001.3,P
1456510195.1,286047003.0,N
1456510196.0,286047003.0,N
1456510215.8,286047007.0,N
1456510235.6,286047004.0,N
1456510255.5,286047005.8,N
1456510275.3,286047004.6,N
1456510295.1,286047007.6,N
1456510315.9,286047005.1,N
1456510335.7,286047009.0,Y
1456510355.5,286047004.9,P
1456510375.4,286047004.6,P
1456510395.2,286047008.6,P
1456510415.0,286047007.5,Y
1456510415.9,286047007.5,P
1456510435.8,286046998.3,N
1456510455.6,286047000.3,N
1456510475.4,286047002.3,N
1456510495.3,286046999.9,N
1456510515.1,286047004.2,N
1456510516.0,286047004.2,N
1456510535.8,286047005.2,N
1456510555.7,286047005.0,N
1456510575.5,286047007.2,N
1456510595.3,286047003.4,N
1456510615.2,286047004.7,N
1456510635.9,286047006.4,N
1456510655.7,286047008.6,Y
1456510675.6,286047005.2,P
1456510695.4,286047001.5,N
1456510715.2,286047003.4,N
1456510735.1,286047006.2,Y
1456510736.0,286047006.2,P
1456510755.8,286047007.2,P
1456510775.6,286047004.9,P
1456510795.5,286047005.4,Y
1456510815.3,286047000.5,P
1456510835.1,286047002.8,N
1456510855.9,286047001.7,N
1456510875.7,286047006.0,Y
1456510895.5,286047002.3,P
1456510915.4,286046998.5,P
1456510935.2,286046999.2,N
1456510955.0,286046999.0,N
1456510955.9,286046999.0,N
1456510975.8,286046999.2,N
1456510995.6,286046997.5,N
1456511015.4,286046996.5,N
1456511035.2,286047000.9,N
1456511055.1,286047003.6,N
1456511056.0,286047003.6,N
1456511075.8,286047006.8,N
1456511095.6,286047004.3,N
1456511115.5,286047001.9,N
1456511135.3,286047002.4,N
1456511155.1,286047002.2,N
1456511175.9,286047001.7,N
1456511195.7,286047001.5,N
1456511215.5,286047003.1,N
1456511235.4,286047003.2,N
1456511255.2,286047004.3,N
1456511275.0,286047001.8,N
1456511275.9,286047001.8,N
1456511295.8,286047007.2,Y
1456511315.6,286047002.9,P
1456511335.4,286047002.9,P
1456511355.3,286047004.0,P
1456511375.1,286047004.6,Y
1456511376.0,286047004.6,P
1456511395.8,286047002.1,N
1456511415.7,286046998.6,N
1456511435.5,286046998.3,N
1456511455.3,286046996.9,N
1456511475.2,286046997.1,N
1456511495.9,286046999.4,N
1456511515.7,286046996.8,N
1456511535.6,286046999.6,N
1456511555.4,286046995.4,N
1456511575.2,286046994.5,N
1456511595.0,286046994.2,N
1456511595.9,286046994.2,N
1456511615.8,286046994.7,N
1456511635.6,286046994.5,N
1456511655.4,286046992.0,N
1456511675.3,286046992.0,N
1456511695.1,286046995.2,N
1456511715.8,286046993.6,N
1456511735.7,286046995.4,N
1456511755.5,286046999.0,N
1456511775.3,286046996.5,N
1456511795.2,286046997.2,N
1456511815.9,286046996.0,N
1456511835.7,286046995.4,N
1456511855.5,286046996.9,N
1456511875.4,286046997.6,N
1456511895.2,286046997.2,N
1456511915.0,286046997.4,N
1456511915.9,286046997.4,N
1456511935.8,286046999.6,N
1456511955.6,286046996.5,N
1456511975.4,286047002.3,N
1456511995.3,286047002.0,N
1456512015.1,286047000.1,N
1456512035.8,286047000.1,N
1456512055.7,286047001.2,N
1456512075.5,286046999.3,N
1456512095.3,286046999.1,N
1456512115.2,286046995.1,N
1456512135.9,286046999.3,N
1456512155.7,286047001.2,N
1456512175.6,286046998.9,N
1456512195.4,286047001.7,N
1456512215.2,286047000.0,N
1456512235.0,286047003.8,N
1456512236.0,286047003.8,N
1456512255.8,286046999.7,N
1456512275.6,286047003.9,N
1456512295.4,286047001.5,N
1456512315.3,286047004.8,N
1456512335.1,286047005.3,N
1456512355.8,286047006.7,N
1456512375.7,286047005.6,N
1456512395.5,286047001.3,N
1456512415.3,286047006.0,N
1456512435.2,286047002.9,N
1456512455.9,286047004.2,N
1456512475.7,286047003.2,N
1456512495.6,286047005.1,N
1456512515.4,286047002.1,N
1456512535.2,286047000.2,N
1456512555.1,286047000.1,N
1456512556.0,286047000.1,N
1456512575.8,286047000.5,N
1456512595.6,286047000.6,N
1456512615.5,286046997.1,N
1456512635.3,286046997.2,N
1456512655.1,286046997.6,N
1456512675.8,286046998.4,N
1456512695.7,286047000.6,N
1456512715.5,286047001.0,N
1456512735.3,286047001.7,N
1456512755.2,286047004.1,N
1456512775.9,286047005.9,N
1456512795.7,286047000.5,N
1456512815.6,286047002.8,N
1456512835.4,286047002.6,N
1456512855.2,286046999.9,N
1456512875.1,286046996.7,N
1456512876.0,286046996.7,N
1456512895.8,286046995.7,N
1456512915.6,286046996.0,N
1456512935.5,286046992.2,N
1456512955.3,286046994.6,N
1456512975.1,286046993.6,N
1456512995.8,286046998.9,N
1456513015.7,286046998.7,N
1456513035.5,286046997.3,N
1456513055.3,286046997.9,N
1456513075.2,286046995.0,N
1456513095.0,286046994.9,N
1456513095.9,286046994.9,N
1456513115.7,286046999.1,N
1456513135.6,286047000.9,N
1456513155.4,286046999.7,N
1456513175.2,286047000.5,N
1456513195.1,286046998.4,N
1456513196.0,286046998.4,N
